Location: Spruce Knob
(38.6995°N, 79.5330°W)
Time: 20:11:48
(UTC-05:00)

X-37B - Visible Passes

Search period start: 26 November 2022 00:00
Search period end: 06 December 2022 00:00
Orbit: 277 x 277 km, 45.0° (Epoch: 01 November)

Date Brightness Start Highest point End Pass type
(mag) Time Alt. Az. Time Alt. Az. Time Alt. Az.
26 Nov 2.6 05:26:42 16° SSE 05:26:42 16° SSE 05:27:25 10° SSE visible
04 Dec 2.7 18:29:48 10° S 18:30:16 12° S 18:30:16 12° S visible
05 Dec 1.8 18:29:44 10° SSW 18:31:11 24° S 18:31:11 24° S visible
